User: anonymous   Login
Location: Kalberh�ni
(46.4610°N, 7.2453°E)
Time: 15:20:41
(UTC+00:00)
Language:

Cosmos 2322 Rocket - Orbit

View from above orbital plane
View from above orbital plane
View from above satellite
View from above satellite

Ground track
Ground track

The orbit data is extracted from the following two-line orbital elements,

1 23705U 95058B   21264.52631569  .00000262  00000-0  15920-3 0  9996
2 23705  71.0249   1.5515 0010416  83.1173 277.1134 14.15152149337500
Epoch (UTC): 21 September 2021 12:37:53
Eccentricity: 0.0010416
inclination: 71.0249°
perigee height: 834 km
apogee height: 849 km
right ascension of ascending node: 1.5515°
argument of perigee: 83.1173°
revolutions per day: 14.15152149
mean anomaly at epoch: 277.1134°
orbit number at epoch: 33750

The dashed part of the orbit path shows where the satellite is in the earth's shadow,  

DLR